[Date Prev][Date Next][Thread Prev][Thread Next] - [Date Index][Thread Index][Author Index]
2 Line ISS Keps 4-25
- Subject: [sarex] 2 Line ISS Keps 4-25
- From: "Dr Dave Larsen [ PhD ]" <doc@xxxxxxxxxxx>
- Date: Wed, 25 Apr 2001 13:48:55 -0700
ISS
1 25544U 98067A 01115.84086366 .00034202 00000-0 40508-3 0 9057
2 25544 51.5704 352.4450 0012451 328.1611 110.8679 15.60823345138902
----
Via the sarex mailing list at AMSAT.ORG courtesy of AMSAT-NA.
To unsubscribe, send "unsubscribe sarex" to Majordomo@amsat.org
AMSAT Home